[[{"header":{"parameterUnit":"m.s-1","parameterCategory":1,"la1":30.2991,"la2":30.254,"lo1":-89.0895,"lo2":-89.0444,"dy":0.0017,"dx":0.0017,"nx":28,"ny":28,"refTime":"2024-07-27T21:00:00:Z","depth":0,"parameterNumber":2,"parameterNumberName":"U-component_of_WINDS"},"data":[0,0,0,0,0,0,0,0,0,0,0,0,0,0,0,0,0,0,0,0,0,0,0,0,0,0,0,0,0,0,0,0,0,0,0,0,0,0,0,0,0,0,0,0,0,0,0,0,0,0,0,0,0,0,0,0,0,0,0.8635,0.8637,0,0.8788,0.879,0.8791,0.8878,0.8878,0.8879,0.8879,0.9038,0.9041,0.9045,0,0,0,0,0,0,0,0,0,0,0,0,0,0.842,0.8424,0.8635,0.8637,0.8639,0.8788,0.879,0.8792,0.8878,0.8878,0.8879,0.8879,0.9036,0.9041,0.9046,0,0,0,0,0,0,0,0,0,0,0,0,0,0.8537,0.8425,0.8635,0.87,0.8707,0.8787,0.879,0.8792,0.8878,0.8878,0.8879,0.8879,0.9035,0.904,0.9046,0.9074,0,0,0.9064,0.9067,0,0,0,0,0,0,0,0,0.8531,0.8545,0.8688,0.8695,0.8704,0.8814,0.8772,0.8887,0.8878,0.8813,0.8879,0.8879,0.8963,0.8975,0.9003,0.9082,0.9088,0.9065,0.9069,0.9071,0.9073,0,0,0,0,0,0,0,0.8522,0.8539,0.8696,0.869,0.87,0.8722,0.8739,0.8794,0.8884,0.8819,0.8825,0.8842,0.8967,0.8997,0.9007,0.9091,0.9065,0.907,0.9074,0.9076,0.9201,0.92,0,0,0,0,0,0,0.8504,0.8532,0.8691,0.87,0.8616,0.8726,0.8745,0.8778,0.8884,0.89,0.8842,0.8846,0.8986,0.9,0.9013,0.9053,0.9071,0.9077,0.908,0.9201,0.9201,0.92,0,0,0,0,0,0,0.8499,0.8517,0.8685,0.8618,0.8641,0.8729,0.8766,0.8781,0.8811,0.8901,0.8917,0.8855,0.8987,0.9005,0.9058,0.9059,0.9079,0.9085,0.9201,0.9201,0.92,0.9131,0,0,0,0,0,0,0.8492,0.8515,0.8526,0.8617,0.8644,0.8726,0.8766,0.8784,0.882,0.8827,0.8918,0.8933,0.8989,0.9049,0.9064,0.9068,0.9089,0.9201,0.9201,0.9201,0.9134,0.9129,0.9124,0,0,0,0,0,0.8484,0.85,0.8526,0.8544,0.8659,0.8726,0.8742,0.8805,0.882,0.8832,0.889,0.893,0.9057,0.9054,0.9072,0.9077,0.9202,0.9201,0.9201,0.9136,0.913,0.9124,0,0,0,0,0,0,0.8407,0.8514,0.8543,0.8589,0.8648,0.8741,0.8758,0.8796,0.8852,0.8856,0.8933,0.8953,0.8999,0.9044,0.9038,0.911,0.9134,0.9137,0.9078,0.9073,0.9068,0.9056,0.9094,0,0,0,0,0,0.8395,0.844,0.8531,0.8563,0.8591,0.8669,0.8701,0.8744,0.8808,0.8834,0.8896,0.8957,0.9011,0.9045,0.9099,0.9141,0.9162,0.9154,0.9149,0.9144,0.9146,0.9171,0.9169,0.9198,0.9198,0.9198,0,0,0.8372,0.8436,0.8459,0.8549,0.86,0.8645,0.8689,0.8735,0.877,0.8841,0.8895,0.8943,0.9017,0.9064,0.9088,0.9103,0.9142,0.9144,0.9139,0.9144,0.9171,0.9168,0.9165,0.9198,0.9198,0.9198,0,0,0.8352,0.8404,0.8437,0.8487,0.8563,0.8614,0.8622,0.8709,0.8743,0.8799,0.8853,0.8896,0.8986,0.9037,0.9074,0.9073,0.9112,0.9089,0.9063,0.9087,0.9085,0.9083,0.9083,0.9081,0.909,0.909,0.909,0,0.8313,0.8382,0.8449,0.8492,0.853,0.8596,0.863,0.8675,0.8765,0.879,0.8805,0.892,0.8975,0.9035,0.9034,0.9063,0.9074,0.9079,0.908,0.9079,0.9078,0.9078,0.9078,0.9087,0.9087,0.9087,0.9088,0,0.8331,0.8378,0.8396,0.848,0.852,0.8558,0.8631,0.8664,0.8704,0.8755,0.881,0.8878,0.8947,0.8965,0.9005,0.9031,0.9037,0.9065,0.909,0.9071,0.9072,0.9073,0.9082,0.9083,0.9084,0.9085,0,0,0.8266,0.8387,0.8392,0.8431,0.852,0.8558,0.8599,0.8666,0.8693,0.8753,0.879,0.8865,0.8891,0.8933,0.898,0.9001,0.8995,0.9026,0.9029,0.9017,0.9028,0.9006,0.9005,0.9022,0.9022,0.9022,0.9022,0,0.8259,0.8335,0.8396,0.845,0.8495,0.8558,0.8595,0.8653,0.8701,0.8747,0.8801,0.8853,0.8883,0.8909,0.8933,0.8991,0.8998,0.8992,0.9057,0.9059,0.9036,0.9006,0.8984,0.898,0.9023,0.9023,0.9023,0,0.826,0.8317,0.8374,0.8458,0.848,0.8511,0.8577,0.862,0.8688,0.8721,0.8768,0.8816,0.8864,0.8885,0.8951,0.8945,0.8975,0.9008,0.9009,0.9018,0.9039,0.9013,0.898,0.8979,0.9025,0.9025,0.9025,0,0.8206,0.8297,0.8344,0.8375,0.8475,0.8495,0.8537,0.8606,0.8642,0.8701,0.8725,0.8788,0.8822,0.8871,0.8935,0.8944,0.8994,0.9021,0.9024,0.9022,0.9031,0.9029,0.9002,0.9051,0.9051,0.9051,0.9051,0,0.8191,0.8224,0.8321,0.8349,0.8388,0.8459,0.8495,0.8543,0.8604,0.8643,0.8703,0.8738,0.8821,0.8867,0.8918,0.8965,0.898,0.9009,0.9022,0.9003,0.8999,0.9024,0.9026,0.9051,0.9051,0.9051,0.9051,0,0.8138,0.8204,0.8258,0.8348,0.8371,0.8396,0.8473,0.8503,0.8555,0.8604,0.8619,0.8701,0.8758,0.8827,0.8906,0.894,0.8983,0.9002,0.8959,0.8967,0.8965,0.8964,0.8952,0.8954,0.9002,0.9001,0.9001,0,0.8123,0.815,0.8242,0.8272,0.8313,0.8361,0.8398,0.8469,0.8505,0.8585,0.8606,0.8667,0.872,0.8809,0.8875,0.8936,0.8958,0.895,0.8968,0.8948,0.8957,0.8955,0.8958,0.8944,0.8943,0.8943,0.8942,0,0.8091,0.8122,0.8173,0.8235,0.8278,0.8331,0.8386,0.8408,0.849,0.8528,0.8587,0.8628,0.8709,0.8769,0.8839,0.8884,0.8927,0.8936,0.894,0.8921,0.8894,0.8908,0.8945,0.8936,0.8936,0.8937,0.8937,0.8938,0.8056,0.8083,0.8151,0.8206,0.8255,0.8306,0.8338,0.8394,0.8444,0.8515,0.8554,0.8612,0.868,0.8778,0.8821,0.8868,0.8883,0.8889,0.889,0.889,0.8884,0.8887,0.8881,0.8881,0.8881,0.8882,0.8882,0,0.8026,0.8074,0.8123,0.8198,0.8242,0.8278,0.8341,0.8375,0.8425,0.8484,0.8535,0.8603,0.8662,0.8733,0.8797,0.882,0.8841,0.8834,0.8833,0.8843,0.8867,0.8857,0.8816,0.8816,0.8816,0.8816,0.8816,0.8816,0.8015,0.8062,0.8102,0.8173,0.8221,0.8278,0.8311,0.8358,0.8405,0.8478,0.8527,0.8573,0.8637,0.8706,0.8762,0.8781,0.8802,0.8789,0.8814,0.8835,0.8841,0.8846,0.8837,0.8793,0.8793,0.8786,0.8786,0.8786]},{"header":{"parameterUnit":"m.s-1","parameterCategory":1,"la1":30.2991,"la2":30.254,"lo1":-89.0895,"lo2":-89.0444,"dy":0.0017,"dx":0.0017,"nx":28,"ny":28,"refTime":"2024-07-27T21:00:00:Z","depth":0,"parameterNumber":3,"parameterNumberName":"V-component_of_WINDS"},"data":[0,0,0,0,0,0,0,0,0,0,0,0,0,0,0,0,0,0,0,0,0,0,0,0,0,0,0,0,0,0,0,0,0,0,0,0,0,0,0,0,0,0,0,0,0,0,0,0,0,0,0,0,0,0,0,0,0,0,2.4571,2.4571,0,2.4556,2.4556,2.4556,2.4576,2.4576,2.4577,2.4578,2.456,2.4558,2.4557,0,0,0,0,0,0,0,0,0,0,0,0,0,2.4614,2.4613,2.4571,2.4571,2.4571,2.4557,2.4556,2.4556,2.4576,2.4576,2.4577,2.4578,2.456,2.4559,2.4557,0,0,0,0,0,0,0,0,0,0,0,0,0,2.4597,2.4613,2.4571,2.4579,2.458,2.4557,2.4556,2.4556,2.4575,2.4576,2.4578,2.4579,2.456,2.4559,2.4557,2.4525,0,0,2.4552,2.4551,0,0,0,0,0,0,0,0,2.4598,2.4595,2.4578,2.4578,2.4579,2.4569,2.4565,2.4545,2.4575,2.4577,2.4578,2.4579,2.4562,2.456,2.4555,2.4524,2.4523,2.4552,2.4551,2.455,2.4549,0,0,0,0,0,0,0,2.4599,2.4596,2.4565,2.4578,2.4578,2.4582,2.4581,2.4561,2.4563,2.4577,2.4578,2.4576,2.4562,2.4556,2.4554,2.4523,2.4552,2.455,2.4549,2.4548,2.4465,2.4464,0,0,0,0,0,0,2.46,2.4597,2.4566,2.4565,2.4591,2.4581,2.4579,2.4571,2.4564,2.4564,2.4575,2.4577,2.4559,2.4556,2.4554,2.4516,2.455,2.4548,2.4547,2.4467,2.4465,2.4464,0,0,0,0,0,0,2.4601,2.4597,2.4566,2.4581,2.4578,2.4579,2.4569,2.457,2.4565,2.4563,2.4563,2.4569,2.4559,2.4556,2.4532,2.4515,2.4547,2.4546,2.4468,2.4466,2.4464,2.4439,0,0,0,0,0,0,2.4602,2.4597,2.4585,2.4581,2.4577,2.4546,2.4568,2.4569,2.4562,2.4564,2.4557,2.4557,2.456,2.4535,2.453,2.4514,2.4544,2.4469,2.4467,2.4465,2.4441,2.4437,2.4433,0,0,0,0,0,2.4603,2.4578,2.4585,2.4581,2.4562,2.4545,2.4542,2.4548,2.456,2.4548,2.4547,2.4557,2.4518,2.4532,2.4527,2.451,2.447,2.4468,2.4465,2.4443,2.4438,2.4433,0,0,0,0,0,0,2.4579,2.4577,2.4585,2.4558,2.4551,2.4548,2.4533,2.4541,2.453,2.4533,2.4539,2.4537,2.4511,2.4508,2.4524,2.4478,2.4496,2.4493,2.4481,2.4476,2.4471,2.4472,2.4543,0,0,0,0,0,2.4571,2.4557,2.4556,2.4532,2.4529,2.4531,2.4524,2.4529,2.4522,2.4519,2.4516,2.4508,2.4494,2.4485,2.4472,2.4441,2.444,2.4427,2.4423,2.4419,2.4415,2.4399,2.4393,2.4455,2.4455,2.4455,0,0,2.4553,2.455,2.4541,2.4527,2.4523,2.4508,2.4529,2.4512,2.4501,2.4516,2.4493,2.4491,2.4483,2.4455,2.4443,2.4452,2.4398,2.4416,2.4413,2.4411,2.4396,2.439,2.4385,2.4453,2.4454,2.4454,0,0,2.4513,2.451,2.449,2.4485,2.4479,2.4481,2.4476,2.4472,2.4471,2.4449,2.446,2.4446,2.4422,2.4416,2.441,2.4369,2.4377,2.4364,2.4341,2.4325,2.432,2.4316,2.4301,2.4295,2.4361,2.4361,2.4361,0,2.4491,2.447,2.4478,2.4461,2.4454,2.4469,2.4448,2.4443,2.4432,2.4427,2.4437,2.4408,2.4403,2.4375,2.4365,2.4359,2.4353,2.4365,2.432,2.4316,2.4312,2.4298,2.4292,2.4359,2.4359,2.436,2.436,0,2.4443,2.4429,2.4413,2.4404,2.4395,2.4376,2.4381,2.4371,2.4377,2.4378,2.4355,2.435,2.4337,2.4331,2.4336,2.4303,2.4308,2.4319,2.4337,2.4304,2.4291,2.4286,2.4357,2.4358,2.4358,2.4358,0,0,2.4386,2.4383,2.4377,2.4373,2.4367,2.4356,2.4337,2.4326,2.4317,2.431,2.4294,2.4274,2.4284,2.4277,2.4282,2.4268,2.4235,2.428,2.428,2.4272,2.4198,2.419,2.4183,2.4241,2.424,2.4239,2.4199,0,2.4346,2.4315,2.4322,2.4292,2.4278,2.4292,2.4276,2.4271,2.4271,2.4259,2.4259,2.4245,2.426,2.4256,2.4243,2.4242,2.422,2.4245,2.4226,2.4225,2.4227,2.4177,2.4167,2.4129,2.4194,2.4193,2.4192,0,2.4294,2.4286,2.4255,2.4252,2.4247,2.4233,2.4222,2.4211,2.4205,2.4206,2.4199,2.4207,2.4188,2.4207,2.4181,2.4198,2.419,2.4189,2.4187,2.4185,2.4206,2.4172,2.4117,2.4112,2.4184,2.4185,2.4186,0,2.4256,2.4237,2.4215,2.4212,2.4208,2.4198,2.4196,2.4191,2.4184,2.4175,2.417,2.4158,2.4152,2.4143,2.4147,2.416,2.412,2.4139,2.412,2.412,2.411,2.411,2.4052,2.4106,2.4106,2.4106,2.4106,0,2.4209,2.4189,2.4198,2.4185,2.4163,2.4171,2.4149,2.4148,2.4144,2.4131,2.4142,2.4129,2.4136,2.4123,2.4126,2.4104,2.4101,2.4101,2.4102,2.41,2.41,2.4094,2.4097,2.4105,2.4105,2.4105,2.4106,0,2.4162,2.4167,2.4145,2.4144,2.4143,2.4127,2.4126,2.4113,2.4115,2.4098,2.4095,2.4097,2.4083,2.4086,2.407,2.4072,2.4045,2.4049,2.4047,2.4048,2.4028,2.403,2.3964,2.3956,2.4015,2.4015,2.4014,0,2.4131,2.4117,2.4115,2.4107,2.4105,2.4092,2.4085,2.4093,2.4085,2.4078,2.4066,2.4053,2.4043,2.4019,2.4019,2.4007,2.4011,2.3989,2.4009,2.4008,2.401,2.4011,2.401,2.3985,2.3984,2.3984,2.3983,0,2.4077,2.4081,2.4071,2.4062,2.4054,2.4046,2.404,2.4033,2.4041,2.4031,2.4017,2.401,2.3994,2.3981,2.397,2.3967,2.3976,2.3977,2.3972,2.3969,2.3968,2.3968,2.4035,2.3978,2.3979,2.3979,2.3979,2.3979,2.4037,2.4025,2.4022,2.401,2.4007,2.4001,2.399,2.3991,2.398,2.3969,2.3974,2.3958,2.3953,2.394,2.3936,2.3923,2.3931,2.3924,2.3922,2.3919,2.3917,2.3971,2.3921,2.3921,2.3921,2.3921,2.3921,0,2.3983,2.3983,2.3972,2.3964,2.3955,2.3966,2.396,2.3951,2.3938,2.3933,2.3923,2.3908,2.3895,2.3895,2.3883,2.3873,2.3877,2.3869,2.387,2.3869,2.391,2.3916,2.3867,2.3867,2.3867,2.3867,2.3867,2.3867,2.3954,2.3934,2.3937,2.3916,2.3915,2.3901,2.3896,2.3891,2.3887,2.387,2.386,2.386,2.3857,2.3845,2.3834,2.3835,2.383,2.3821,2.3822,2.3861,2.3866,2.3871,2.3877,2.382,2.382,2.3782,2.3782,2.3781]}]]